Погода в Хаддерсфилде

Великобритания     53°39′05″N   1°47′05″W
темп.,
°C
ветер,
м/с
пор.,
м/с
влажн.,
%
обл.,
%
осадки,
мм/ч
давл.,
гПа
погр.,
м
14 апреля, ср
ср1401:00+4всв2287100 0.1 1034284
04:00+3всв1286100 0.0 1034268
07:00+3всв11846 0.0 1034106
10:00+6в22633 0.0 1035680
13:00+9всв234594 0.0 10341835
16:00+9св344589 0.1 10331785
19:00+8всв345119 0.1 10341144
22:00+4в24715 0.0 1036290
15 апреля, чт
чт1501:00+2всв11751 0.0 103622
04:00+1св11791 0.0 103515
07:00+1ссв11775 0.0 103665
10:00+5всв24510 0.0 1036701
13:00+9всв354894 0.0 10351778
16:00+8в3450100 0.1 10341583
19:00+7в34566 0.1 1034972
22:00+4вюв26745 0.0 1035289
16 апреля, пт
пт1601:00+2в11820 0.0 103517
04:00+1вюв01841 0.0 103512
07:00+1юв01803 0.0 103531
10:00+6вюв23510 0.0 1034674
13:00+9вюв22340 0.0 10331433
16:00+11вюв22321 0.0 10311598
19:00+9вюв22415 0.0 1031768
22:00+5юв26614 0.0 1032285
17 апреля, сб
сб1701:00+3юв11681 0.0 103249
04:00+2юв117167 0.0 103116
07:00+2в11720 0.0 103141
10:00+6юв2346100 0.0 1030494
13:00+10юв2333100 0.0 10281157
16:00+11ююв2333100 0.0 10261458
19:00+10ю2447100 0.0 1026782
22:00+6ююв256498 0.0 1026158
18 апреля, вс
вс1801:00+5ююв2476100 0.0 1025160
04:00+5ююв2477100 0.0 1024138
07:00+5ю1378100 0.1 1023158
10:00+8ююв2775100 0.2 1023637
13:00+11юв3540100 0.0 10241188
16:00+8ю386997 0.0 1021533
19:00+8ю2674100 0.0 1021393
22:00+6ююз1283100 0.0 1021103